iso_date,epoch_date,Year,Hour,Min,DOY,POS_DOY,Lat,Lon,BP,Ts,Ta,has_bp,has_ts,has_ta,BuoyID,Buoy_Type,Buoy_Owner,Logistics,Hemisphere
2011-01-01T00:00:00Z,1293840000,2011,0,0,1.0,1.0,78.70248,-151.79094,1017.0,-999.00,-999.0,yes,no,no,300034012772020,unknown,unknown,unknown,North
2011-01-01T01:00:28Z,1293843629,2011,1,0,1.042,1.042,78.70248,-151.79094,1016.9,-999.00,-999.0,yes,no,no,300034012772020,unknown,unknown,unknown,North
2011-01-01T01:59:31Z,1293847171,2011,2,0,1.083,1.083,78.70248,-151.79094,1016.7,-999.00,-999.0,yes,no,no,300034012772020,unknown,unknown,unknown,North
2011-01-01T03:00:00Z,1293850800,2011,3,0,1.125,1.125,78.6978,-151.77546,1016.8,-999.00,-999.0,yes,no,no,300034012772020,unknown,unknown,unknown,North
2011-01-01T04:00:28Z,1293854429,2011,4,0,1.167,1.167,78.6978,-151.77546,1016.5,-999.00,-999.0,yes,no,no,300034012772020,unknown,unknown,unknown,North
2011-01-01T04:59:31Z,1293857971,2011,5,0,1.208,1.208,78.6978,-151.77546,1016.7,-999.00,-999.0,yes,no,no,300034012772020,unknown,unknown,unknown,North
2011-01-01T06:00:00Z,1293861600,2011,6,0,1.25,1.25,78.69528,-151.76106,1016.5,-999.00,-999.0,yes,no,no,300034012772020,unknown,unknown,unknown,North
2011-01-01T07:00:28Z,1293865229,2011,7,0,1.292,1.292,78.69528,-151.76106,1016.6,-999.00,-999.0,yes,no,no,300034012772020,unknown,unknown,unknown,North
2011-01-01T07:59:31Z,1293868771,2011,8,0,1.333,1.333,78.69528,-151.76106,1016.3,-999.00,-999.0,yes,no,no,300034012772020,unknown,unknown,unknown,North
2011-01-01T09:00:00Z,1293872400,2011,9,0,1.375,1.375,78.6951,-151.74432,1016.5,-999.00,-999.0,yes,no,no,300034012772020,unknown,unknown,unknown,North
2011-01-01T10:00:28Z,1293876029,2011,10,0,1.417,1.417,78.6951,-151.74432,1016.7,-999.00,-999.0,yes,no,no,300034012772020,unknown,unknown,unknown,North
2011-01-01T10:59:31Z,1293879571,2011,11,0,1.458,1.458,78.6951,-151.74432,1016.6,-999.00,-999.0,yes,no,no,300034012772020,unknown,unknown,unknown,North
2011-01-01T12:00:00Z,1293883200,2011,12,0,1.5,1.5,78.6951,-151.72092,1016.9,-999.00,-999.0,yes,no,no,300034012772020,unknown,unknown,unknown,North
2011-01-01T13:00:28Z,1293886829,2011,13,0,1.542,1.542,78.6951,-151.72092,1017.0,-999.00,-999.0,yes,no,no,300034012772020,unknown,unknown,unknown,North
2011-01-01T13:59:31Z,1293890371,2011,14,0,1.583,1.583,78.6951,-151.72092,1016.8,-999.00,-999.0,yes,no,no,300034012772020,unknown,unknown,unknown,North
2011-01-01T15:00:00Z,1293894000,2011,15,0,1.625,1.625,78.69474,-151.69842,1016.9,-999.00,-999.0,yes,no,no,300034012772020,unknown,unknown,unknown,North
2011-01-01T16:00:28Z,1293897629,2011,16,0,1.667,1.667,78.69474,-151.69842,1017.0,-999.00,-999.0,yes,no,no,300034012772020,unknown,unknown,unknown,North
2011-01-01T16:59:31Z,1293901171,2011,17,0,1.708,1.708,78.69474,-151.69842,1017.2,-999.00,-999.0,yes,no,no,300034012772020,unknown,unknown,unknown,North
2011-01-01T18:00:00Z,1293904800,2011,18,0,1.75,1.75,78.69402,-151.6797,1017.3,-999.00,-999.0,yes,no,no,300034012772020,unknown,unknown,unknown,North
2011-01-01T19:00:28Z,1293908429,2011,19,0,1.792,1.792,78.69402,-151.6797,1017.6,-999.00,-999.0,yes,no,no,300034012772020,unknown,unknown,unknown,North
2011-01-01T19:59:31Z,1293911971,2011,20,0,1.833,1.833,78.69402,-151.6797,1017.9,-999.00,-999.0,yes,no,no,300034012772020,unknown,unknown,unknown,North
2011-01-01T21:00:00Z,1293915600,2011,21,0,1.875,1.875,78.69384,-151.66008,1018.0,-999.00,-999.0,yes,no,no,300034012772020,unknown,unknown,unknown,North
2011-01-01T22:00:28Z,1293919229,2011,22,0,1.917,1.917,78.69384,-151.66008,1018.4,-999.00,-999.0,yes,no,no,300034012772020,unknown,unknown,unknown,North
2011-01-01T22:59:31Z,1293922771,2011,23,0,1.958,1.958,78.69384,-151.66008,1018.4,-999.00,-999.0,yes,no,no,300034012772020,unknown,unknown,unknown,North
2011-01-02T00:00:00Z,1293926400,2011,0,0,2.0,2.0,78.69366,-151.63416,1018.5,-999.00,-999.0,yes,no,no,300034012772020,unknown,unknown,unknown,North
2011-01-02T01:00:28Z,1293930029,2011,1,0,2.042,2.042,78.69366,-151.63416,1018.6,-999.00,-999.0,yes,no,no,300034012772020,unknown,unknown,unknown,North
2011-01-02T01:59:31Z,1293933571,2011,2,0,2.083,2.083,78.69366,-151.63416,1018.7,-999.00,-999.0,yes,no,no,300034012772020,unknown,unknown,unknown,North
2011-01-02T03:00:00Z,1293937200,2011,3,0,2.125,2.125,78.69294,-151.6032,1019.0,-999.00,-999.0,yes,no,no,300034012772020,unknown,unknown,unknown,North
2011-01-02T04:00:28Z,1293940829,2011,4,0,2.167,2.167,78.69294,-151.6032,1018.8,-999.00,-999.0,yes,no,no,300034012772020,unknown,unknown,unknown,North
2011-01-02T04:59:31Z,1293944371,2011,5,0,2.208,2.208,78.69294,-151.6032,1019.2,-999.00,-999.0,yes,no,no,300034012772020,unknown,unknown,unknown,North
2011-01-02T06:00:00Z,1293948000,2011,6,0,2.25,2.25,78.6915,-151.5708,1019.2,-999.00,-999.0,yes,no,no,300034012772020,unknown,unknown,unknown,North
2011-01-02T07:00:28Z,1293951629,2011,7,0,2.292,2.292,78.6915,-151.5708,1019.4,-999.00,-999.0,yes,no,no,300034012772020,unknown,unknown,unknown,North
2011-01-02T07:59:31Z,1293955171,2011,8,0,2.333,2.333,78.6915,-151.5708,1019.6,-999.00,-999.0,yes,no,no,300034012772020,unknown,unknown,unknown,North
2011-01-02T09:00:00Z,1293958800,2011,9,0,2.375,2.375,78.69024,-151.53714,1020.0,-999.00,-999.0,yes,no,no,300034012772020,unknown,unknown,unknown,North
2011-01-02T10:00:28Z,1293962429,2011,10,0,2.417,2.417,78.69024,-151.53714,1020.2,-999.00,-999.0,yes,no,no,300034012772020,unknown,unknown,unknown,North
2011-01-02T10:59:31Z,1293965971,2011,11,0,2.458,2.458,78.69024,-151.53714,1020.5,-999.00,-999.0,yes,no,no,300034012772020,unknown,unknown,unknown,North
2011-01-02T12:00:00Z,1293969600,2011,12,0,2.5,2.5,78.69042,-151.50132,1020.9,-999.00,-999.0,yes,no,no,300034012772020,unknown,unknown,unknown,North
2011-01-02T13:00:28Z,1293973229,2011,13,0,2.542,2.542,78.69042,-151.50132,1021.2,-999.00,-999.0,yes,no,no,300034012772020,unknown,unknown,unknown,North
2011-01-02T13:59:31Z,1293976771,2011,14,0,2.583,2.583,78.69042,-151.50132,1021.3,-999.00,-999.0,yes,no,no,300034012772020,unknown,unknown,unknown,North
2011-01-02T15:00:00Z,1293980400,2011,15,0,2.625,2.625,78.69132,-151.46658,1021.4,-999.00,-999.0,yes,no,no,300034012772020,unknown,unknown,unknown,North
2011-01-02T16:00:28Z,1293984029,2011,16,0,2.667,2.667,78.69132,-151.46658,1021.5,-999.00,-999.0,yes,no,no,300034012772020,unknown,unknown,unknown,North
2011-01-02T16:59:31Z,1293987571,2011,17,0,2.708,2.708,78.69132,-151.46658,1022.0,-999.00,-999.0,yes,no,no,300034012772020,unknown,unknown,unknown,North
2011-01-02T18:00:00Z,1293991200,2011,18,0,2.75,2.75,78.69222,-151.43922,1022.4,-999.00,-999.0,yes,no,no,300034012772020,unknown,unknown,unknown,North
2011-01-02T19:00:28Z,1293994829,2011,19,0,2.792,2.792,78.69222,-151.43922,1022.8,-999.00,-999.0,yes,no,no,300034012772020,unknown,unknown,unknown,North
2011-01-02T19:59:31Z,1293998371,2011,20,0,2.833,2.833,78.69222,-151.43922,1023.0,-999.00,-999.0,yes,no,no,300034012772020,unknown,unknown,unknown,North
2011-01-02T21:00:00Z,1294002000,2011,21,0,2.875,2.875,78.69438,-151.41366,1023.6,-999.00,-999.0,yes,no,no,300034012772020,unknown,unknown,unknown,North
2011-01-02T22:00:28Z,1294005629,2011,22,0,2.917,2.917,78.69438,-151.41366,1024.0,-999.00,-999.0,yes,no,no,300034012772020,unknown,unknown,unknown,North
2011-01-02T22:59:31Z,1294009171,2011,23,0,2.958,2.958,78.69438,-151.41366,1024.2,-999.00,-999.0,yes,no,no,300034012772020,unknown,unknown,unknown,North
2011-01-03T00:00:00Z,1294012800,2011,0,0,3.0,3.0,78.6969,-151.38936,1024.6,-999.00,-999.0,yes,no,no,300034012772020,unknown,unknown,unknown,North
2011-01-03T01:00:28Z,1294016429,2011,1,0,3.042,3.042,78.6969,-151.38936,1024.9,-999.00,-999.0,yes,no,no,300034012772020,unknown,unknown,unknown,North
2011-01-03T01:59:31Z,1294019971,2011,2,0,3.083,3.083,78.6969,-151.38936,1024.9,-999.00,-999.0,yes,no,no,300034012772020,unknown,unknown,unknown,North
2011-01-03T03:00:00Z,1294023600,2011,3,0,3.125,3.125,78.7005,-151.37154,1025.5,-999.00,-999.0,yes,no,no,300034012772020,unknown,unknown,unknown,North
2011-01-03T04:00:28Z,1294027229,2011,4,0,3.167,3.167,78.7005,-151.37154,1025.7,-999.00,-999.0,yes,no,no,300034012772020,unknown,unknown,unknown,North
2011-01-03T04:59:31Z,1294030771,2011,5,0,3.208,3.208,78.7005,-151.37154,1026.0,-999.00,-999.0,yes,no,no,300034012772020,unknown,unknown,unknown,North
2011-01-03T06:00:00Z,1294034400,2011,6,0,3.25,3.25,78.70374,-151.35894,1026.0,-999.00,-999.0,yes,no,no,300034012772020,unknown,unknown,unknown,North
2011-01-03T07:00:28Z,1294038029,2011,7,0,3.292,3.292,78.70374,-151.35894,1026.2,-999.00,-999.0,yes,no,no,300034012772020,unknown,unknown,unknown,North
2011-01-03T07:59:31Z,1294041571,2011,8,0,3.333,3.333,78.70374,-151.35894,1026.4,-999.00,-999.0,yes,no,no,300034012772020,unknown,unknown,unknown,North
2011-01-03T09:00:00Z,1294045200,2011,9,0,3.375,3.375,78.7086,-151.35498,1026.6,-999.00,-999.0,yes,no,no,300034012772020,unknown,unknown,unknown,North
2011-01-03T10:00:28Z,1294048829,2011,10,0,3.417,3.417,78.7086,-151.35498,1026.6,-999.00,-999.0,yes,no,no,300034012772020,unknown,unknown,unknown,North
2011-01-03T10:59:31Z,1294052371,2011,11,0,3.458,3.458,78.7086,-151.35498,1026.6,-999.00,-999.0,yes,no,no,300034012772020,unknown,unknown,unknown,North
2011-01-03T12:00:00Z,1294056000,2011,12,0,3.5,3.5,78.7149,-151.35642,1026.8,-999.00,-999.0,yes,no,no,300034012772020,unknown,unknown,unknown,North
2011-01-03T13:00:28Z,1294059629,2011,13,0,3.542,3.542,78.7149,-151.35642,1026.7,-999.00,-999.0,yes,no,no,300034012772020,unknown,unknown,unknown,North
2011-01-03T13:59:31Z,1294063171,2011,14,0,3.583,3.583,78.7149,-151.35642,1025.9,-999.00,-999.0,yes,no,no,300034012772020,unknown,unknown,unknown,North
2011-01-03T15:00:00Z,1294066800,2011,15,0,3.625,3.625,78.7221,-151.37406,1025.7,-999.00,-999.0,yes,no,no,300034012772020,unknown,unknown,unknown,North
2011-01-03T16:00:28Z,1294070429,2011,16,0,3.667,3.667,78.7221,-151.37406,1025.6,-999.00,-999.0,yes,no,no,300034012772020,unknown,unknown,unknown,North
2011-01-03T16:59:31Z,1294073971,2011,17,0,3.708,3.708,78.7221,-151.37406,1025.7,-999.00,-999.0,yes,no,no,300034012772020,unknown,unknown,unknown,North
2011-01-03T18:00:00Z,1294077600,2011,18,0,3.75,3.75,78.73272,-151.42266,1025.2,-999.00,-999.0,yes,no,no,300034012772020,unknown,unknown,unknown,North
2011-01-03T19:00:28Z,1294081229,2011,19,0,3.792,3.792,78.73272,-151.42266,1024.8,-999.00,-999.0,yes,no,no,300034012772020,unknown,unknown,unknown,North
2011-01-03T19:59:31Z,1294084771,2011,20,0,3.833,3.833,78.73272,-151.42266,1024.2,-999.00,-999.0,yes,no,no,300034012772020,unknown,unknown,unknown,North
2011-01-03T21:00:00Z,1294088400,2011,21,0,3.875,3.875,78.74604,-151.49736,1024.0,-999.00,-999.0,yes,no,no,300034012772020,unknown,unknown,unknown,North
2011-01-03T22:00:28Z,1294092029,2011,22,0,3.917,3.917,78.74604,-151.49736,1023.3,-999.00,-999.0,yes,no,no,300034012772020,unknown,unknown,unknown,North
2011-01-03T22:59:31Z,1294095571,2011,23,0,3.958,3.958,78.74604,-151.49736,1022.6,-999.00,-999.0,yes,no,no,300034012772020,unknown,unknown,unknown,North
2011-01-04T00:00:00Z,1294099200,2011,0,0,4.0,4.0,78.76098,-151.58826,1022.1,-999.00,-999.0,yes,no,no,300034012772020,unknown,unknown,unknown,North
2011-01-04T01:00:28Z,1294102829,2011,1,0,4.042,4.042,78.76098,-151.58826,1021.0,-999.00,-999.0,yes,no,no,300034012772020,unknown,unknown,unknown,North
2011-01-04T01:59:31Z,1294106371,2011,2,0,4.083,4.083,78.76098,-151.58826,1019.8,-999.00,-999.0,yes,no,no,300034012772020,unknown,unknown,unknown,North
2011-01-04T03:00:00Z,1294110000,2011,3,0,4.125,4.125,78.77934,-151.69266,1019.7,-999.00,-999.0,yes,no,no,300034012772020,unknown,unknown,unknown,North
2011-01-04T04:00:28Z,1294113629,2011,4,0,4.167,4.167,78.77934,-151.69266,1019.2,-999.00,-999.0,yes,no,no,300034012772020,unknown,unknown,unknown,North
2011-01-04T04:59:31Z,1294117171,2011,5,0,4.208,4.208,78.77934,-151.69266,1018.6,-999.00,-999.0,yes,no,no,300034012772020,unknown,unknown,unknown,North
2011-01-04T06:00:00Z,1294120800,2011,6,0,4.25,4.25,78.80238,-151.8003,1017.3,-999.00,-999.0,yes,no,no,300034012772020,unknown,unknown,unknown,North
2011-01-04T07:00:28Z,1294124429,2011,7,0,4.292,4.292,78.80238,-151.8003,1016.1,-999.00,-999.0,yes,no,no,300034012772020,unknown,unknown,unknown,North
2011-01-04T07:59:31Z,1294127971,2011,8,0,4.333,4.333,78.80238,-151.8003,1016.0,-999.00,-999.0,yes,no,no,300034012772020,unknown,unknown,unknown,North
2011-01-04T09:00:00Z,1294131600,2011,9,0,4.375,4.375,78.82848,-151.90722,1015.8,-999.00,-999.0,yes,no,no,300034012772020,unknown,unknown,unknown,North
2011-01-04T10:00:28Z,1294135229,2011,10,0,4.417,4.417,78.82848,-151.90722,1015.3,-999.00,-999.0,yes,no,no,300034012772020,unknown,unknown,unknown,North
2011-01-04T10:59:31Z,1294138771,2011,11,0,4.458,4.458,78.82848,-151.90722,1014.5,-999.00,-999.0,yes,no,no,300034012772020,unknown,unknown,unknown,North
2011-01-04T12:00:00Z,1294142400,2011,12,0,4.5,4.5,78.85602,-152.0073,1014.4,-999.00,-999.0,yes,no,no,300034012772020,unknown,unknown,unknown,North
2011-01-04T13:00:28Z,1294146029,2011,13,0,4.542,4.542,78.85602,-152.0073,1013.6,-999.00,-999.0,yes,no,no,300034012772020,unknown,unknown,unknown,North
2011-01-04T13:59:31Z,1294149571,2011,14,0,4.583,4.583,78.85602,-152.0073,1012.4,-999.00,-999.0,yes,no,no,300034012772020,unknown,unknown,unknown,North
2011-01-04T15:00:00Z,1294153200,2011,15,0,4.625,4.625,78.88482,-152.1063,1011.9,-999.00,-999.0,yes,no,no,300034012772020,unknown,unknown,unknown,North
2011-01-04T16:00:28Z,1294156829,2011,16,0,4.667,4.667,78.88482,-152.1063,1011.5,-999.00,-999.0,yes,no,no,300034012772020,unknown,unknown,unknown,North
2011-01-04T16:59:31Z,1294160371,2011,17,0,4.708,4.708,78.88482,-152.1063,1011.1,-999.00,-999.0,yes,no,no,300034012772020,unknown,unknown,unknown,North
2011-01-04T18:00:00Z,1294164000,2011,18,0,4.75,4.75,78.9156,-152.1954,1010.8,-999.00,-999.0,yes,no,no,300034012772020,unknown,unknown,unknown,North
2011-01-04T19:00:28Z,1294167629,2011,19,0,4.792,4.792,78.9156,-152.1954,1010.3,-999.00,-999.0,yes,no,no,300034012772020,unknown,unknown,unknown,North
2011-01-04T19:59:31Z,1294171171,2011,20,0,4.833,4.833,78.9156,-152.1954,1009.5,-999.00,-999.0,yes,no,no,300034012772020,unknown,unknown,unknown,North
2011-01-04T21:00:00Z,1294174800,2011,21,0,4.875,4.875,78.94782,-152.26434,1009.4,-999.00,-999.0,yes,no,no,300034012772020,unknown,unknown,unknown,North
2011-01-04T22:00:28Z,1294178429,2011,22,0,4.917,4.917,78.94782,-152.26434,1009.2,-999.00,-999.0,yes,no,no,300034012772020,unknown,unknown,unknown,North
2011-01-04T22:59:31Z,1294181971,2011,23,0,4.958,4.958,78.94782,-152.26434,1009.2,-999.00,-999.0,yes,no,no,300034012772020,unknown,unknown,unknown,North
2011-01-05T00:00:00Z,1294185600,2011,0,0,5.0,5.0,78.9804,-152.30952,1009.3,-999.00,-999.0,yes,no,no,300034012772020,unknown,unknown,unknown,North
2011-01-05T01:00:28Z,1294189229,2011,1,0,5.042,5.042,78.9804,-152.30952,1008.7,-999.00,-999.0,yes,no,no,300034012772020,unknown,unknown,unknown,North
2011-01-05T01:59:31Z,1294192771,2011,2,0,5.083,5.083,78.9804,-152.30952,1008.5,-999.00,-999.0,yes,no,no,300034012772020,unknown,unknown,unknown,North
2011-01-05T03:00:00Z,1294196400,2011,3,0,5.125,5.125,79.01352,-152.34246,1008.6,-999.00,-999.0,yes,no,no,300034012772020,unknown,unknown,unknown,North
2011-01-05T04:00:28Z,1294200029,2011,4,0,5.167,5.167,79.01352,-152.34246,1008.9,-999.00,-999.0,yes,no,no,300034012772020,unknown,unknown,unknown,North
2011-01-05T04:59:31Z,1294203571,2011,5,0,5.208,5.208,79.01352,-152.34246,1009.2,-999.00,-999.0,yes,no,no,300034012772020,unknown,unknown,unknown,North
2011-01-05T06:00:00Z,1294207200,2011,6,0,5.25,5.25,79.047,-152.35272,1009.4,-999.00,-999.0,yes,no,no,300034012772020,unknown,unknown,unknown,North
2011-01-05T07:00:28Z,1294210829,2011,7,0,5.292,5.292,79.047,-152.35272,1010.0,-999.00,-999.0,yes,no,no,300034012772020,unknown,unknown,unknown,North
2011-01-05T07:59:31Z,1294214371,2011,8,0,5.333,5.333,79.047,-152.35272,1010.9,-999.00,-999.0,yes,no,no,300034012772020,unknown,unknown,unknown,North
2011-01-05T09:00:00Z,1294218000,2011,9,0,5.375,5.375,79.07922,-152.34066,1011.6,-999.00,-999.0,yes,no,no,300034012772020,unknown,unknown,unknown,North
2011-01-05T10:00:28Z,1294221629,2011,10,0,5.417,5.417,79.07922,-152.34066,1012.4,-999.00,-999.0,yes,no,no,300034012772020,unknown,unknown,unknown,North
2011-01-05T10:59:31Z,1294225171,2011,11,0,5.458,5.458,79.07922,-152.34066,1013.2,-999.00,-999.0,yes,no,no,300034012772020,unknown,unknown,unknown,North
2011-01-05T12:00:00Z,1294228800,2011,12,0,5.5,5.5,79.10658,-152.3295,1013.8,-999.00,-999.0,yes,no,no,300034012772020,unknown,unknown,unknown,North
2011-01-05T13:00:28Z,1294232429,2011,13,0,5.542,5.542,79.10658,-152.3295,1014.5,-999.00,-999.0,yes,no,no,300034012772020,unknown,unknown,unknown,North
2011-01-05T13:59:31Z,1294235971,2011,14,0,5.583,5.583,79.10658,-152.3295,1015.2,-999.00,-999.0,yes,no,no,300034012772020,unknown,unknown,unknown,North
2011-01-05T15:00:00Z,1294239600,2011,15,0,5.625,5.625,79.13088,-152.33364,1015.8,-999.00,-999.0,yes,no,no,300034012772020,unknown,unknown,unknown,North
2011-01-05T16:00:28Z,1294243229,2011,16,0,5.667,5.667,79.13088,-152.33364,1016.2,-999.00,-999.0,yes,no,no,300034012772020,unknown,unknown,unknown,North
2011-01-05T16:59:31Z,1294246771,2011,17,0,5.708,5.708,79.13088,-152.33364,1016.8,-999.00,-999.0,yes,no,no,300034012772020,unknown,unknown,unknown,North
2011-01-05T18:00:00Z,1294250400,2011,18,0,5.75,5.75,79.1514,-152.32842,1017.2,-999.00,-999.0,yes,no,no,300034012772020,unknown,unknown,unknown,North
2011-01-05T19:00:28Z,1294254029,2011,19,0,5.792,5.792,79.1514,-152.32842,1017.7,-999.00,-999.0,yes,no,no,300034012772020,unknown,unknown,unknown,North
2011-01-05T19:59:31Z,1294257571,2011,20,0,5.833,5.833,79.1514,-152.32842,1018.2,-999.00,-999.0,yes,no,no,300034012772020,unknown,unknown,unknown,North
2011-01-05T21:00:00Z,1294261200,2011,21,0,5.875,5.875,79.1685,-152.31564,1018.7,-999.00,-999.0,yes,no,no,300034012772020,unknown,unknown,unknown,North
2011-01-05T22:00:28Z,1294264829,2011,22,0,5.917,5.917,79.1685,-152.31564,1019.4,-999.00,-999.0,yes,no,no,300034012772020,unknown,unknown,unknown,North
2011-01-05T22:59:31Z,1294268371,2011,23,0,5.958,5.958,79.1685,-152.31564,1019.5,-999.00,-999.0,yes,no,no,300034012772020,unknown,unknown,unknown,North
2011-01-06T00:00:00Z,1294272000,2011,0,0,6.0,6.0,79.18002,-152.30232,1019.8,-999.00,-999.0,yes,no,no,300034012772020,unknown,unknown,unknown,North
2011-01-06T01:00:28Z,1294275629,2011,1,0,6.042,6.042,79.18002,-152.30232,1020.0,-999.00,-999.0,yes,no,no,300034012772020,unknown,unknown,unknown,North
2011-01-06T01:59:31Z,1294279171,2011,2,0,6.083,6.083,79.18002,-152.30232,1020.2,-999.00,-999.0,yes,no,no,300034012772020,unknown,unknown,unknown,North
2011-01-06T03:00:00Z,1294282800,2011,3,0,6.125,6.125,79.1874,-152.30844,1020.5,-999.00,-999.0,yes,no,no,300034012772020,unknown,unknown,unknown,North
2011-01-06T04:00:28Z,1294286429,2011,4,0,6.167,6.167,79.1874,-152.30844,1020.9,-999.00,-999.0,yes,no,no,300034012772020,unknown,unknown,unknown,North
2011-01-06T04:59:31Z,1294289971,2011,5,0,6.208,6.208,79.1874,-152.30844,1021.0,-999.00,-999.0,yes,no,no,300034012772020,unknown,unknown,unknown,North
2011-01-06T06:00:00Z,1294293600,2011,6,0,6.25,6.25,79.19298,-152.32356,1021.4,-999.00,-999.0,yes,no,no,300034012772020,unknown,unknown,unknown,North
2011-01-06T07:00:28Z,1294297229,2011,7,0,6.292,6.292,79.19298,-152.32356,1021.6,-999.00,-999.0,yes,no,no,300034012772020,unknown,unknown,unknown,North
2011-01-06T07:59:31Z,1294300771,2011,8,0,6.333,6.333,79.19298,-152.32356,1022.0,-999.00,-999.0,yes,no,no,300034012772020,unknown,unknown,unknown,North
2011-01-06T09:00:00Z,1294304400,2011,9,0,6.375,6.375,79.19748,-152.33526,1022.7,-999.00,-999.0,yes,no,no,300034012772020,unknown,unknown,unknown,North
2011-01-06T10:00:28Z,1294308029,2011,10,0,6.417,6.417,79.19748,-152.33526,1023.2,-999.00,-999.0,yes,no,no,300034012772020,unknown,unknown,unknown,North
2011-01-06T10:59:31Z,1294311571,2011,11,0,6.458,6.458,79.19748,-152.33526,1023.4,-999.00,-999.0,yes,no,no,300034012772020,unknown,unknown,unknown,North
2011-01-06T12:00:00Z,1294315200,2011,12,0,6.5,6.5,79.2,-152.3448,1023.3,-999.00,-999.0,yes,no,no,300034012772020,unknown,unknown,unknown,North
2011-01-06T13:00:28Z,1294318829,2011,13,0,6.542,6.542,79.2,-152.3448,1023.7,-999.00,-999.0,yes,no,no,300034012772020,unknown,unknown,unknown,North
2011-01-06T13:59:31Z,1294322371,2011,14,0,6.583,6.583,79.2,-152.3448,1023.9,-999.00,-999.0,yes,no,no,300034012772020,unknown,unknown,unknown,North
2011-01-06T15:00:00Z,1294326000,2011,15,0,6.625,6.625,79.2018,-152.36172,1024.1,-999.00,-999.0,yes,no,no,300034012772020,unknown,unknown,unknown,North
2011-01-06T16:00:28Z,1294329629,2011,16,0,6.667,6.667,79.2018,-152.36172,1024.5,-999.00,-999.0,yes,no,no,300034012772020,unknown,unknown,unknown,North
2011-01-06T16:59:31Z,1294333171,2011,17,0,6.708,6.708,79.2018,-152.36172,1024.5,-999.00,-999.0,yes,no,no,300034012772020,unknown,unknown,unknown,North
2011-01-06T18:00:00Z,1294336800,2011,18,0,6.75,6.75,79.20378,-152.38314,1024.8,-999.00,-999.0,yes,no,no,300034012772020,unknown,unknown,unknown,North
2011-01-06T18:14:24Z,1294337664,2011,18,15,6.76,6.76,79.20378,-152.38314,1024.8,-999.00,-999.0,yes,no,no,300034012772020,unknown,unknown,unknown,North
2011-01-06T19:59:31Z,1294343971,2011,20,0,6.833,6.833,79.20378,-152.38314,1025.0,-999.00,-999.0,yes,no,no,300034012772020,unknown,unknown,unknown,North
2011-01-06T21:00:00Z,1294347600,2011,21,0,6.875,6.875,79.20522,-152.40006,1025.1,-999.00,-999.0,yes,no,no,300034012772020,unknown,unknown,unknown,North
2011-01-06T22:00:28Z,1294351229,2011,22,0,6.917,6.917,79.20522,-152.40006,1025.3,-999.00,-999.0,yes,no,no,300034012772020,unknown,unknown,unknown,North
2011-01-06T22:59:31Z,1294354771,2011,23,0,6.958,6.958,79.20522,-152.40006,1025.6,-999.00,-999.0,yes,no,no,300034012772020,unknown,unknown,unknown,North
2011-01-07T00:00:00Z,1294358400,2011,0,0,7.0,7.0,79.2054,-152.41572,1025.3,-999.00,-999.0,yes,no,no,300034012772020,unknown,unknown,unknown,North
2011-01-07T01:00:28Z,1294362029,2011,1,0,7.042,7.042,79.2054,-152.41572,1025.3,-999.00,-999.0,yes,no,no,300034012772020,unknown,unknown,unknown,North
2011-01-07T01:59:31Z,1294365571,2011,2,0,7.083,7.083,79.20504,-152.42904,1025.3,-999.00,-999.0,yes,no,no,300034012772020,unknown,unknown,unknown,North
2011-01-07T02:15:21Z,1294366522,2011,2,15,7.094,7.094,79.20468,-152.43714,1025.3,-999.00,-999.0,yes,no,no,300034012772020,unknown,unknown,unknown,North
2011-01-07T04:00:28Z,1294372829,2011,4,0,7.167,7.167,79.20468,-152.43714,1025.0,-999.00,-999.0,yes,no,no,300034012772020,unknown,unknown,unknown,North
2011-01-07T04:59:31Z,1294376371,2011,5,0,7.208,7.208,79.20468,-152.43714,1024.9,-999.00,-999.0,yes,no,no,300034012772020,unknown,unknown,unknown,North
2011-01-07T06:00:00Z,1294380000,2011,6,0,7.25,7.25,79.20396,-152.46396,1024.9,-999.00,-999.0,yes,no,no,300034012772020,unknown,unknown,unknown,North
2011-01-07T07:00:28Z,1294383629,2011,7,0,7.292,7.292,79.20396,-152.46396,1025.1,-999.00,-999.0,yes,no,no,300034012772020,unknown,unknown,unknown,North
2011-01-07T07:59:31Z,1294387171,2011,8,0,7.333,7.333,79.20396,-152.46396,1025.0,-999.00,-999.0,yes,no,no,300034012772020,unknown,unknown,unknown,North
2011-01-07T09:00:00Z,1294390800,2011,9,0,7.375,7.375,79.20342,-152.48772,1025.3,-999.00,-999.0,yes,no,no,300034012772020,unknown,unknown,unknown,North
2011-01-07T10:00:28Z,1294394429,2011,10,0,7.417,7.417,79.20342,-152.48772,1025.5,-999.00,-999.0,yes,no,no,300034012772020,unknown,unknown,unknown,North
2011-01-07T10:59:31Z,1294397971,2011,11,0,7.458,7.458,79.20342,-152.48772,1025.6,-999.00,-999.0,yes,no,no,300034012772020,unknown,unknown,unknown,North
2011-01-07T12:00:00Z,1294401600,2011,12,0,7.5,7.5,79.2027,-152.505,1025.7,-999.00,-999.0,yes,no,no,300034012772020,unknown,unknown,unknown,North
2011-01-07T13:00:28Z,1294405229,2011,13,0,7.542,7.542,79.2027,-152.505,1025.6,-999.00,-999.0,yes,no,no,300034012772020,unknown,unknown,unknown,North